This is the latest recevied weather packets stored in our database for station/object KD2SIG. If no packets are shown the sender has not sent any weather packets the latest 10 day(s).
| Time | Temp. | Humidity | Pressure | Rain* | Wind** | Luminosity | Snow |
|---|---|---|---|---|---|---|---|
| 1777929635 | 21.67° C | 46% | 1004.2 hPa | 0 mm | - | 343 W/m² | - |
| 1777929332 | 21.11° C | 46% | 1004.1 hPa | 0 mm | - | 326 W/m² | - |
| 1777929029 | 21.67° C | 46% | 1004.3 hPa | 0 mm | - | 309 W/m² | - |
| 1777928726 | 21.67° C | 45% | 1004.2 hPa | 0 mm | - | 311 W/m² | - |
| 1777928422 | 21.67° C | 46% | 1004.3 hPa | 0 mm | - | 364 W/m² | - |
| 1777928120 | 21.11° C | 46% | 1004.3 hPa | 0 mm | - | 372 W/m² | - |
| 1777927818 | 21.67° C | 46% | 1004.4 hPa | 0 mm | - | 363 W/m² | - |
| 1777927516 | 21.67° C | 47% | 1004.4 hPa | 0 mm | - | 412 W/m² | - |
| 1777927215 | 21.67° C | 47% | 1004.4 hPa | 0 mm | - | 409 W/m² | - |
| 1777926912 | 21.67° C | 46% | 1004.5 hPa | 0 mm | - | 462 W/m² | - |
| 1777926609 | 21.67° C | 47% | 1004.4 hPa | 0 mm | - | 430 W/m² | - |
| 1777926305 | 21.67° C | 48% | 1004.4 hPa | 0 mm | - | 433 W/m² | - |
| 1777926001 | 21.67° C | 47% | 1004.6 hPa | 0 mm | - | 442 W/m² | - |
| 1777925699 | 21.67° C | 46% | 1004.4 hPa | 0 mm | - | 498 W/m² | - |
| 1777925396 | 21.67° C | 48% | 1004.6 hPa | 0 mm | - | 519 W/m² | - |
| 1777925093 | 21.67° C | 48% | 1004.8 hPa | 0 mm | - | 513 W/m² | - |
| 1777924789 | 21.11° C | 48% | 1004.8 hPa | 0 mm | - | 538 W/m² | - |
| 1777924485 | 21.11° C | 48% | 1004.6 hPa | 0 mm | - | 550 W/m² | - |
| 1777924182 | 21.11° C | 48% | 1004.7 hPa | 0 mm | - | 541 W/m² | - |
| 1777923878 | 21.11° C | 48% | 1004.7 hPa | 0 mm | - | 565 W/m² | - |
| 1777923574 | 21.11° C | 50% | 1004.9 hPa | 0 mm | - | 424 W/m² | - |
| 1777923272 | 20.56° C | 49% | 1005.2 hPa | 0 mm | - | 584 W/m² | - |
| 1777922971 | 20.56° C | 49% | 1005 hPa | 0 mm | - | 615 W/m² | - |
| 1777922667 | 21.11° C | 50% | 1005.1 hPa | 0 mm | - | 626 W/m² | - |
| 1777922366 | 20.56° C | 51% | 1005.2 hPa | 0 mm | - | 605 W/m² | - |
* Rain latest hour (hover to see other rain measurements)
** Current wind speed in m/s (hover to see current wind gust speed)